Weather Service Report


102 
ASUS44 KLUB 241410
RWRTX 
WEST TEXAS WEATHER ROUNDUP
NATIONAL WEATHER SERVICE LUBBOCK TX
900 AM CDT TUE MAY 24 2016

NOTE: "FAIR" INDICATES FEW OR NO CLOUDS BELOW 12,000 FEET WITH NO
SIGNIFICANT WEATHER AND/OR OBSTRUCTIONS TO VISIBILITY.

TXZ004-006>008-010-012-014-016-OKZ002-241500-
TEXAS PANHANDLE/OKLAHOMA PANHANDLE
  
CITY           SKY/WX    TMP DP  RH WIND       PRES   REMARKS
AMARILLO       MOSUNNY   69  63  81 S26G32    29.90S                  
BORGER         SUNNY     73  64  73 S20G30    29.87R                  
CANADIAN       CLOUDY    75  70  83 SW16G23   29.86R                  
DALHART        SUNNY     62  47  57 SW9       29.89R                  
DUMAS          SUNNY     69  56  64 S15       29.88R                  
GUYMON         SUNNY     72  63  73 SW15      29.83S                  
HEREFORD       MOSUNNY   69  63  83 SW13      29.93R                  
PAMPA          MOSUNNY   74  67  79 S21G29    29.90R                  
PERRYTON       SUNNY     75  68  78 S23G29    29.85S                  
$$

TXZ026-029-035-045-048-241500-
SOUTHERN PANHANDLE/SOUTH PLAINS/ROLLING PLAINS
  
CITY           SKY/WX    TMP DP  RH WIND       PRES   REMARKS
CHILDRESS      MOSUNNY   76  72  87 S16       29.88S                  
SEMINOLE       PTSUNNY   72  66  82 S12       29.93R                  
LUBBOCK        CLOUDY    72  67  84 S14       29.91R HAZE             
PLAINVIEW      PTSUNNY   71  69  92 S17       29.90R                  
SNYDER           N/A     75  70  85 S15       29.91R                  
$$

TXZ052-054-060>062-072-078-127-140-154-169-241500-
PERMIAN BASIN/CONCHO VALLEY/BIG COUNTRY/EDWARDS PLATEAU  
  
CITY           SKY/WX    TMP DP  RH WIND       PRES   REMARKS
ABILENE        CLOUDY    74  70  87 SE15      29.93R                  
BIG SPRING     MOSUNNY   74  68  80 S18       29.91S                  
BROWNWOOD      CLOUDY    75  70  83 SE10      29.95R                  
JUNCTION       CLOUDY    76  68  76 S15G21    29.93R                  
MIDLAND        CLOUDY    76  67  73 S17       29.90R                  
ODESSA         CLOUDY    76  66  71 S20       29.91R                  
SAN ANGELO     PTSUNNY   77  68  73 S10       29.91R                  
SONORA         CLOUDY    73  68  83 S12       29.96R                  
SWEETWATER     CLOUDY    75  71  89 SE14      29.94S                  
WINK           SUNNY     73  64  73 MISG      29.89R                  
$$

TXZ055-058-074-075-080-082-241500-
FAR WEST/SOUTHWEST MOUNTAINS/TRANS PECOS
  
CITY           SKY/WX    TMP DP  RH WIND       PRES   REMARKS
ALPINE         PTSUNNY   75  38  26 SW7       30.07S                  
EL PASO        MOSUNNY   72  23  16 S6        29.99R                  
FORT STOCKTON  MOSUNNY   76  64  66 S7        29.92R                  
MARFA          CLOUDY    63  56  78 CALM      30.08R                  
PECOS          SUNNY     71  34  25 W5        29.91R                  
PRESIDIO       FAIR      75  60  58 CALM      29.95R                  
$$

TXZ014-016-019-021>030-083-241500
TEXAS TECH WEST TEXAS MESONET/TEXAS PANHANDLE/NORTHERN SOUTH PLAINS
  
CITY           SKY/WX    TMP DP  RH WIND       PRES   REMARKS
ABERNATHY 5ENE   N/A     72  66  81 S16       29.94S                  
AMARILLO 9NNE    N/A     72  62  72 S22G29    29.88S                  
AMARILLO 7SSE    N/A     70  63  79 SW18      29.93S                  
AMHERST 1NE      N/A     71  64  79 S13G21    29.92S                  
BOOTLEG 11WNW    N/A     68  55  62 SW15      29.97R                  
CANADIAN 6E      N/A     74  68  82 S13       29.87R                  
CAPROCK CYN SP   N/A     72  70  95 SE13      29.91S                  
CHILDRESS 2NNE   N/A     76  70  81 S14       29.89S                  
CLARENDON 2WSW   N/A     73  68  84 S16       29.92R                  
CLAUDE 12SW      N/A     70  65  84 S9        29.93S                  
DIMMITT 2NE      N/A     67  62  83 S17G25    29.93S                  
FLOYDADA 2NNE    N/A     72  68  86 S14       29.92S                  
FRIONA 2NE       N/A     66  60  81 SW18      29.94S                  
GOODLETT 3W      N/A     78  69  75 S13       29.88S                  
HART 3N          N/A     68  64  86 SW17G24   29.93S                  
HEREFORD 2NW     N/A     67  58  72 SW15      29.95R                  
MCLEAN 1E        N/A     73  69  87 S18G25    29.90R                  
MEMPHIS 1NE      N/A     75  71  87 SE10      29.89S                  
MULESHOE 2SSW    N/A     70  62  77 S16       29.93R                  
OLTON 6S         N/A     71  65  82 S16G22    29.92S                  
PALO DURO SP     N/A     69  64  82 S7        29.94R                  
PAMPA 2E         N/A     71  67  85 S17G30    29.91S                  
PLAINVIEW 1S     N/A     71  67  87 S16G26    29.92R                  
SILVERTON 7ESE   N/A     72  67  82 S14G20    29.91S                  
TULIA 2ENE       N/A     71  66  85 S16G23    29.94R                  
TURKEY 2WSW      N/A     73  71  91 SE13      29.90S                  
UMBARGER 3NNE    N/A     68  61  79 SW21      29.93S                  
$$

TXZ033>036-039>041-045>048-241500
TEXAS TECH WEST TEXAS MESONET/SOUTH PLAINS  
  
CITY           SKY/WX    TMP DP  RH WIND       PRES   REMARKS
AIKEN 3WSW       N/A     72  68  85 S17       29.93R                  
ANDREWS 2NE      N/A     75  65  70 S15       29.94R                  
ANTON 6SSW       N/A     72  66  82 S20       29.92R                  
BROWNFIELD 2S    N/A     71  66  83 S14       29.92F                  
DENVR CTY 7WNW   N/A     71  63  76 S14       29.94S                  
GAIL 2ESE        N/A     76  69  79 S16       29.89S                  
LAMESA 2SE       N/A     73  68  83 S14       29.92R                  
LEVELLAND 4S     N/A     72  65  79 S17       29.93S                  
LUBBOCK 3WNW     N/A     72  66  81 S13       29.93R                  
MORTON 1ENE      N/A     71  63  76 S17       29.93R                  
ODONNELL 1N      N/A     72  65  79 S14       29.91S                  
PLAINS 3N        N/A     71  64  77 S13       29.94S                  
RALLS 1SE        N/A     71  68  88 S10       29.94S                  
REESE CENTER     N/A     71  66  85 S15G22    29.93R                  
SEAGRAVES 1SW    N/A     73  66  81 S16       29.92S                  
SEMINOLE 2NNE    N/A     72  66  79 S12       29.92S                  
SLATON 2NE       N/A     71  67  88 S10       29.93R                  
SNYDER 3E        N/A     74  69  85 SE15      29.91R                  
SUNDOWN 8SW      N/A     72  65  79 S13G20    29.93S                  
TAHOKA 3NNE      N/A     73  68  84 S15       29.92R                  
WOLFFORTH 6SSW   N/A     71  66  83 S16       29.92S                  
$$

TXZ031-032-036>038-042>044-241500-
TEXAS TECH WEST TEXAS MESONET/ROLLING PLAINS 
  
CITY           SKY/WX    TMP DP  RH WIND       PRES   REMARKS
ASPERMONT 3NE    N/A     77  71  80 SE13      29.90S                  
FLUVANNA 3WNW    N/A     74  68  79 S17       29.90R                  
GUTHRIE 10WSW    N/A     75  69  82 SE16      29.89S                  
HASKELL 1NW      N/A     76  68  78 SE12G18   29.90S                  
JAYTON 1SSE      N/A     75  70  84 SE14      29.90R                  
KNOX CITY 3NW    N/A     79  68  69 SE18G25   29.89R                  
LK A HENRY 1NW   N/A     76  69  80 SE9       29.90R                  
NORTHFIELD 1S    N/A     75  72  88 SE13      29.89S                  
ODELL 4ENE       N/A     75  71  87 SE14      29.89S                  
PADUCAH 10SW     N/A     76  70  81 S14G21    29.89S                  
POST 1NE         N/A     74  68  80 S10       29.90R                  
RRING SPRGS 3N   N/A     73  71  94 S10       29.92R                  
SEYMOUR 3NW      N/A     78  69  73 SE15      29.89S                  
SPUR 1W          N/A     73  69  87 SE10      29.91R                  
WEINERT 2NNE     N/A     78  70  77 S20       29.90R                  
WHITE RVR 6NE    N/A     72  68  87 SE9       29.92R                  
$$

TXZ052-054-060>062-072-078-127-140-154-169-241500-
TEXAS TECH WEST TEXAS MESONET/PERMIAN BASIN/
CONCHO VALLEY/BIG COUNTRY/EDWARDS PLATEAU
  
CITY           SKY/WX    TMP DP  RH WIND       PRES   REMARKS
COYANOSA 2N      N/A     78  43  28 SW10      29.91R                  
JUNCTION 1SSW    N/A     76  70  82 SE7       29.95R                  
MERTZON 3NNE     N/A     75  68  78 S9        29.94R                  
SAN ANGELO 7NW   N/A     76  67  71 SE12      29.92R                  
STRLNG CT 4WSW   N/A     75  68  78 SE13      29.92R                  
ST LAWRNCE 5SW   N/A     75  65  72 S20G28    29.92R                  
SWEETWATR 11SW   N/A     74  69  84 SE10      29.93S                  
WALL 1E          N/A     76  67  72 SE10      29.94R                  
$$

TXZ055-058-074-075-080-082-241500-
TEXAS TECH WEST TEXAS MESONET/FAR WEST/SOUTHWEST MOUNTAINS/TRANS PECOS
  
CITY           SKY/WX    TMP DP  RH WIND       PRES   REMARKS
PRSMN GAP BBNP   N/A     73  64  75 SW5       29.96R                  
GUADLPE MTN NP   N/A     71  18  13 W12       30.08R                  
$$
  

Return to Home page


Western Regional Climate Center, wrcc@dri.edu